Location: Canazei
(46.4667°N, 11.7667°E)
Time: 18:13:04
(UTC+00:00)

Cosmos 1674 Rocket - Pass Details

Date: 21 April 2021
Orbit: 604 x 629 km, 82.5° (Epoch: 11 May)

Event Time Altitude Azimuth Distance (km) Brightness Sun altitude
Exits shadow 02:56:52 - 189° (S) 2,062 5.8 -13.0°
Reaches altitude 10° 02:57:07 10° 189° (S) 1,961 5.7 -12.9°
Maximum altitude 03:01:28 85° 277° (W) 623 3.5 -12.3°
Drops below altitude 10° 03:05:54 10° 8° (N) 1,993 6.7 -11.7°
Sets 03:08:09 0° 9° (N) 2,908 7.6 -11.3°
